�N����,����,�~����,�C��,���x,�C��,����,���ϕ���,�ő�u�ԕ���,�ő厞����,���˗�,�I�_���x,�n�����x,�ő啗���N��,DTYPE
"17/10/20","00:10",0.0,14.9,96.9,1010.4,268.1,0.6,1.0,256.6,0.00,14.5,17.3,"00:07:20",1
"17/10/20","00:20",0.0,14.9,96.9,1010.7,278.0,0.8,1.1,308.3,0.00,14.5,17.4,"00:18:32",1
"17/10/20","00:30",0.0,14.9,97.0,1010.7,270.0,0.7,1.2,243.3,0.00,14.5,17.4,"00:25:04",1
"17/10/20","00:40",0.0,14.9,97.0,1010.9,264.0,0.7,1.1,263.2,0.00,14.5,17.3,"00:35:52",1
"17/10/20","00:50",0.0,14.9,97.2,1010.2,263.9,0.6,1.0,243.3,0.00,14.5,17.5,"00:47:52",1
"17/10/20","01:00",0.0,14.9,97.2,1010.7,328.7,0.1,0.5,307.2,0.00,14.5,17.3,"00:50:48",1
"17/10/20","01:10",0.0,15.0,97.2,1010.4,313.3,0.3,0.9,312.5,0.00,14.6,17.4,"01:05:52",1
"17/10/20","01:20",0.0,15.0,97.3,1010.4,323.4,0.8,1.3,333.9,0.00,14.6,17.2,"01:19:12",1
"17/10/20","01:30",0.0,15.0,97.3,1010.2,292.9,0.7,1.3,320.3,0.00,14.6,17.2,"01:24:24",1
"17/10/20","01:40",0.0,14.9,97.4,1010.0,266.4,0.8,1.4,263.4,0.00,14.5,17.2,"01:33:52",1
"17/10/20","01:50",0.0,14.9,97.4,1010.2,270.1,0.7,1.3,257.8,0.00,14.5,17.4,"01:44:08",1
"17/10/20","02:00",0.0,14.9,97.4,1010.0,273.1,0.7,1.1,274.8,0.00,14.5,17.4,"01:56:16",1
"17/10/20","02:10",0.0,14.9,97.5,1010.0,304.4,0.7,1.3,319.4,0.00,14.5,17.2,"02:01:28",1
"17/10/20","02:20",0.0,14.9,97.5,1010.0,272.6,0.8,1.2,294.5,0.00,14.5,17.5,"02:16:00",1
"17/10/20","02:30",0.0,14.9,97.5,1010.0,270.8,0.5,1.0,279.6,0.00,14.5,17.2,"02:20:24",1
"17/10/20","02:40",0.0,14.9,97.6,1010.0,253.4,0.2,0.8,261.4,0.00,14.6,17.4,"02:39:04",1
"17/10/20","02:50",0.0,14.9,97.7,1009.7,291.1,0.3,0.8,315.4,0.00,14.6,17.3,"02:43:04",1
"17/10/20","03:00",0.0,14.9,97.7,1010.0,316.0,0.3,0.8,326.2,0.00,14.6,17.4,"02:54:48",1
"17/10/20","03:10",0.0,15.0,97.7,1010.0,315.6,0.7,1.1,330.4,0.00,14.7,17.2,"03:05:20",1
"17/10/20","03:20",0.0,15.0,97.7,1009.7,298.7,0.7,1.1,325.1,0.00,14.7,17.4,"03:10:32",1
"17/10/20","03:30",0.0,15.0,97.7,1010.0,270.5,0.6,1.0,260.7,0.00,14.7,17.3,"03:21:20",1
"17/10/20","03:40",0.0,14.9,97.8,1009.7,286.9,0.6,1.1,313.2,0.00,14.6,17.3,"03:39:12",1
"17/10/20","03:50",0.0,14.9,97.8,1010.0,273.8,0.7,1.2,298.9,0.00,14.6,17.5,"03:42:40",1
"17/10/20","04:00",0.0,14.8,97.8,1009.5,260.3,0.7,1.2,249.7,0.00,14.5,17.2,"03:52:40",1
"17/10/20","04:10",0.0,14.8,97.9,1009.7,299.0,1.0,2.2,331.0,0.00,14.5,17.3,"04:09:52",1
"17/10/20","04:20",0.0,14.8,97.9,1009.7,314.6,1.5,2.4,342.9,0.00,14.5,17.2,"04:19:04",1
"17/10/20","04:30",0.0,14.8,97.9,1010.0,328.9,1.6,2.6,349.3,0.00,14.5,17.3,"04:27:44",1
"17/10/20","04:40",0.0,14.8,97.9,1009.7,321.2,1.3,2.6,328.1,0.00,14.5,17.1,"04:36:08",1
"17/10/20","04:50",0.0,14.8,97.9,1010.0,321.5,1.3,2.1,318.8,0.00,14.5,17.3,"04:45:20",1
"17/10/20","05:00",0.0,14.8,97.8,1010.4,329.0,1.8,3.1,338.7,0.00,14.5,17.3,"04:55:20",1
"17/10/20","05:10",0.0,14.9,97.8,1010.2,304.1,1.3,2.6,331.5,0.00,14.6,17.2,"05:01:20",1
"17/10/20","05:20",0.0,14.9,97.8,1010.4,287.2,1.0,1.8,313.7,0.00,14.6,17.2,"05:16:08",1
"17/10/20","05:30",0.0,14.9,97.7,1010.0,282.8,1.1,1.9,301.3,0.00,14.6,17.3,"05:25:20",1
"17/10/20","05:40",0.0,14.9,97.7,1010.2,288.5,1.0,1.3,317.8,0.00,14.6,17.4,"05:31:44",1
"17/10/20","05:50",0.0,14.9,97.6,1010.0,270.1,1.0,1.6,255.3,0.00,14.6,17.1,"05:48:32",1
"17/10/20","06:00",0.0,14.9,97.7,1010.0,292.8,1.1,2.0,345.1,0.00,14.6,17.2,"05:59:44",1
"17/10/20","06:10",0.0,14.9,97.6,1010.2,327.1,1.5,2.4,319.2,0.00,14.6,17.0,"06:00:40",1
"17/10/20","06:20",0.2,15.0,97.6,1010.0,325.6,1.0,1.9,341.1,0.00,14.7,17.1,"06:10:32",1
"17/10/20","06:30",0.0,15.0,97.5,1010.2,331.9,1.1,2.0,339.3,0.00,14.6,17.2,"06:20:16",1
"17/10/20","06:40",0.0,15.0,97.5,1010.2,321.4,0.6,1.2,331.4,0.00,14.6,17.2,"06:31:12",1
"17/10/20","06:50",0.0,15.1,97.6,1010.2,297.4,0.8,1.1,323.6,0.00,14.8,17.3,"06:43:04",1
"17/10/20","07:00",0.0,15.1,97.5,1010.4,320.3,1.1,1.8,341.0,0.00,14.7,17.1,"06:54:16",1
"17/10/20","07:10",0.0,15.1,97.5,1010.7,331.0,1.2,2.1,317.9,0.00,14.7,17.3,"07:05:28",1
"17/10/20","07:20",0.0,15.1,97.4,1010.7,293.9,0.8,1.9,299.7,0.00,14.7,17.2,"07:13:20",1
"17/10/20","07:30",0.0,15.2,97.5,1010.7,314.3,0.8,1.4,337.3,0.00,14.8,17.2,"07:28:16",1
"17/10/20","07:40",0.0,15.4,97.5,1010.7,323.4,0.8,1.6,336.0,0.01,15.0,17.2,"07:33:04",1
"17/10/20","07:50",0.0,15.5,97.3,1010.9,279.9,0.7,1.4,263.2,0.01,15.1,17.2,"07:46:24",1
"17/10/20","08:00",0.0,15.5,97.3,1010.7,295.9,0.7,1.6,318.3,0.01,15.1,17.4,"07:56:08",1
"17/10/20","08:10",0.0,15.5,97.2,1010.9,326.3,1.2,2.0,315.0,0.02,15.1,17.3,"08:01:28",1
"17/10/20","08:20",0.0,15.7,97.0,1011.4,324.2,1.1,1.8,320.1,0.04,15.3,17.3,"08:14:32",1
"17/10/20","08:30",0.0,15.9,96.8,1010.9,325.2,1.1,2.5,336.8,0.04,15.4,17.4,"08:28:16",1
"17/10/20","08:40",0.0,15.9,96.5,1011.2,327.9,1.3,2.6,338.8,0.03,15.4,17.4,"08:35:52",1
"17/10/20","08:50",0.0,15.9,96.1,1011.4,329.1,1.3,2.5,324.6,0.04,15.3,17.4,"08:44:56",1
"17/10/20","09:00",0.0,16.1,96.1,1010.9,339.0,1.2,2.9,346.4,0.07,15.5,17.3,"08:52:34",1
"17/10/20","09:10",0.0,16.4,95.3,1011.4,316.3,1.0,1.9,340.5,0.08,15.7,17.4,"09:03:52",1
"17/10/20","09:20",0.0,16.5,94.9,1011.2,298.6,0.7,1.4,320.9,0.05,15.7,17.5,"09:14:16",1
"17/10/20","09:30",0.0,16.7,94.5,1011.2,298.4,0.7,1.4,341.8,0.06,15.9,17.4,"09:21:36",1
"17/10/20","09:40",0.0,16.6,93.9,1011.2,278.3,0.6,1.4,333.9,0.04,15.7,17.5,"09:31:20",1
"17/10/20","09:50",0.0,16.7,93.9,1011.4,313.4,0.8,2.1,339.2,0.05,15.8,17.7,"09:45:44",1
"17/10/20","10:00",0.0,16.8,93.8,1010.9,330.5,1.1,2.5,335.2,0.07,15.8,17.5,"09:57:04",1
"17/10/20","10:10",0.0,16.9,93.4,1011.2,320.1,1.1,1.9,333.8,0.08,15.9,17.5,"10:01:52",1
"17/10/20","10:20",0.0,17.1,92.8,1010.9,322.0,1.0,2.1,358.1,0.11,16.0,17.7,"10:10:16",1
"17/10/20","10:30",0.0,17.3,92.5,1010.9,321.5,1.1,2.0,354.6,0.09,16.1,17.8,"10:20:32",1
"17/10/20","10:40",0.0,17.3,91.7,1011.2,319.3,1.1,2.4,349.7,0.06,16.0,17.7,"10:37:36",1
"17/10/20","10:50",0.0,17.2,92.2,1010.9,329.5,1.2,2.6,348.2,0.08,16.0,17.7,"10:40:56",1
"17/10/20","11:00",0.0,17.3,92.4,1010.9,325.7,1.1,1.8,355.6,0.11,16.1,17.9,"10:54:56",1
"17/10/20","11:10",0.0,17.7,92.7,1010.7,333.1,1.1,2.0,341.5,0.20,16.5,17.9,"11:07:04",1
"17/10/20","11:20",0.0,18.3,90.7,1010.7,285.5,0.5,1.7,215.9,0.26,16.8,18.1,"11:13:28",1
"17/10/20","11:30",0.0,18.2,90.2,1010.4,272.6,0.6,1.4,343.0,0.14,16.6,18.1,"11:21:36",1
"17/10/20","11:40",0.0,18.3,89.9,1010.4,242.0,0.6,1.2,234.6,0.09,16.7,18.0,"11:35:04",1
"17/10/20","11:50",0.0,18.4,90.5,1010.0,265.3,0.5,1.1,297.3,0.08,16.9,18.1,"11:49:52",1
"17/10/20","12:00",0.0,18.3,91.1,1010.2,229.9,0.6,1.6,268.6,0.08,16.9,18.4,"11:51:36",1
"17/10/20","12:10",0.0,18.5,90.3,1010.2,321.4,0.5,1.4,341.2,0.10,16.9,18.2,"12:08:00",1
"17/10/20","12:20",0.0,18.6,90.2,1009.5,309.5,0.5,1.4,348.9,0.13,17.0,18.4,"12:10:48",1
"17/10/20","12:30",0.0,18.9,88.8,1009.3,274.1,0.5,1.9,351.3,0.14,17.1,18.5,"12:24:24",1
"17/10/20","12:40",0.0,18.9,87.4,1009.3,282.3,0.6,1.4,331.8,0.14,16.8,18.5,"12:33:36",1
"17/10/20","12:50",0.0,19.1,86.8,1009.3,265.9,0.3,1.2,239.0,0.12,16.9,18.5,"12:40:48",1
"17/10/20","13:00",0.0,19.4,86.7,1009.0,255.6,0.3,1.3,347.2,0.14,17.2,18.4,"12:50:56",1
"17/10/20","13:10",0.0,19.7,84.0,1009.0,275.5,0.3,1.1,264.9,0.16,17.0,18.7,"13:08:16",1
"17/10/20","13:20",0.0,19.7,85.2,1008.8,266.4,0.6,1.4,230.4,0.13,17.2,18.7,"13:12:24",1
"17/10/20","13:30",0.0,19.6,84.3,1008.8,279.6,0.7,1.8,244.1,0.10,16.9,18.7,"13:21:28",1
"17/10/20","13:40",0.0,19.8,82.4,1009.0,343.0,1.0,2.0,335.2,0.14,16.8,18.9,"13:34:00",1
"17/10/20","13:50",0.0,19.9,80.5,1008.8,327.7,0.7,1.4,335.8,0.10,16.5,18.8,"13:44:56",1
"17/10/20","14:00",0.0,19.8,81.1,1009.0,327.9,0.8,1.7,348.9,0.08,16.5,18.8,"13:52:40",1
"17/10/20","14:10",0.0,19.9,80.8,1009.0,327.0,0.8,1.8,341.5,0.09,16.5,18.9,"14:07:44",1
"17/10/20","14:20",0.0,19.7,82.8,1009.0,337.0,1.0,2.5,356.9,0.10,16.7,18.9,"14:18:24",1
"17/10/20","14:30",0.0,19.8,81.8,1009.0,347.5,1.1,2.0,42.8,0.09,16.6,19.0,"14:20:48",1
"17/10/20","14:40",0.0,19.7,80.7,1008.6,338.9,1.1,2.2,349.8,0.10,16.3,19.0,"14:36:16",1
"17/10/20","14:50",0.0,19.7,82.4,1009.0,331.2,1.2,1.9,314.4,0.10,16.7,19.0,"14:43:04",1
"17/10/20","15:00",0.0,20.0,80.8,1008.8,332.4,1.2,2.5,345.4,0.12,16.6,18.9,"14:52:24",1
"17/10/20","15:10",0.0,20.1,79.3,1009.3,352.3,0.8,2.2,355.1,0.10,16.4,18.9,"15:09:12",1
"17/10/20","15:20",0.0,20.0,78.7,1009.3,343.8,1.1,2.1,348.6,0.09,16.2,19.3,"15:10:40",1
"17/10/20","15:30",0.0,20.1,79.0,1009.7,352.5,1.0,2.2,345.9,0.08,16.4,19.1,"15:25:04",1
"17/10/20","15:40",0.0,20.0,78.2,1009.3,345.4,0.8,2.2,346.2,0.06,16.1,18.9,"15:38:48",1
"17/10/20","15:50",0.0,20.0,78.8,1009.3,341.2,0.7,1.4,331.8,0.06,16.2,19.2,"15:44:00",1
"17/10/20","16:00",0.0,20.0,78.8,1009.5,332.4,0.7,1.3,335.7,0.05,16.2,19.1,"15:53:28",1
"17/10/20","16:10",0.0,20.0,80.0,1009.5,332.2,0.7,1.2,331.5,0.04,16.5,19.2,"16:07:12",1
"17/10/20","16:20",0.0,19.7,81.7,1009.3,328.6,0.8,1.1,349.0,0.02,16.5,19.0,"16:10:08",1
"17/10/20","16:30",0.0,19.5,83.0,1009.3,336.7,0.7,1.2,338.4,0.01,16.6,19.0,"16:29:20",1
"17/10/20","16:40",0.2,19.5,84.9,1009.3,342.1,0.7,1.3,342.0,0.01,16.9,19.1,"16:30:32",1
"17/10/20","16:50",0.0,19.2,84.8,1009.3,336.8,0.8,1.4,340.3,0.02,16.6,19.0,"16:47:36",1
"17/10/20","17:00",0.0,19.0,84.7,1009.3,331.0,0.7,2.0,347.6,0.00,16.4,19.0,"16:50:08",1
"17/10/20","17:10",0.0,18.8,85.0,1009.5,302.4,0.6,1.1,343.4,0.00,16.3,19.0,"17:01:52",1
"17/10/20","17:20",0.0,18.5,85.7,1009.5,304.9,0.7,1.4,319.5,0.00,16.1,19.0,"17:19:28",1
"17/10/20","17:30",0.0,18.4,86.7,1009.7,324.2,1.0,1.6,327.6,0.00,16.2,18.9,"17:20:08",1
"17/10/20","17:40",0.0,18.0,86.9,1009.3,330.0,1.1,1.8,335.1,0.00,15.8,19.1,"17:39:20",1
"17/10/20","17:50",0.0,18.0,87.0,1009.5,322.3,1.5,2.1,340.3,0.00,15.8,18.9,"17:47:04",1
"17/10/20","18:00",0.0,17.8,86.9,1009.5,332.9,1.7,2.6,337.3,0.00,15.6,18.8,"17:50:40",1
"17/10/20","18:10",0.0,17.7,86.8,1010.0,331.7,1.8,3.2,327.5,0.00,15.5,18.7,"18:04:40",1
"17/10/20","18:20",0.0,17.6,87.0,1010.0,335.1,1.6,2.5,341.2,0.00,15.5,18.9,"18:10:24",1
"17/10/20","18:30",0.0,17.5,87.5,1009.7,335.6,1.6,2.5,335.3,0.00,15.4,18.8,"18:23:52",1
"17/10/20","18:40",0.0,17.4,87.8,1010.0,334.8,1.8,3.1,329.4,0.00,15.4,19.0,"18:37:52",1
"17/10/20","18:50",0.0,17.3,87.7,1010.2,330.3,1.8,3.2,336.2,0.00,15.3,18.6,"18:41:44",1
"17/10/20","19:00",0.0,17.3,87.8,1010.4,314.7,1.5,2.0,329.3,0.00,15.3,18.5,"18:55:28",1
"17/10/20","19:10",0.0,17.3,88.6,1010.0,336.1,1.2,1.9,342.9,0.00,15.4,18.6,"19:04:32",1
"17/10/20","19:20",0.0,17.1,89.1,1010.4,330.5,1.5,2.5,333.9,0.00,15.3,18.5,"19:15:04",1
"17/10/20","19:30",0.0,17.0,89.9,1010.7,337.0,1.2,2.0,352.8,0.00,15.4,18.6,"19:21:28",1
"17/10/20","19:40",0.0,17.0,90.5,1010.2,336.6,1.1,1.8,342.9,0.00,15.5,18.5,"19:39:04",1
"17/10/20","19:50",0.0,16.9,90.8,1010.4,328.7,1.3,2.0,333.1,0.00,15.4,18.5,"19:41:36",1
"17/10/20","20:00",0.0,16.9,90.9,1010.4,312.7,1.3,2.1,327.5,0.00,15.4,18.6,"19:55:36",1
"17/10/20","20:10",0.0,17.0,90.9,1010.9,306.8,1.1,1.7,337.4,0.00,15.5,18.5,"20:04:56",1
"17/10/20","20:20",0.0,16.9,91.1,1010.7,320.6,1.3,2.0,334.2,0.00,15.5,18.3,"20:14:08",1
"17/10/20","20:30",0.0,16.8,90.9,1010.4,286.9,0.8,1.3,248.5,0.00,15.3,18.5,"20:26:56",1
"17/10/20","20:40",0.0,16.9,90.9,1010.2,324.0,0.8,1.3,16.1,0.00,15.4,18.4,"20:37:12",1
"17/10/20","20:50",0.0,16.9,90.9,1010.2,337.6,0.8,1.4,348.6,0.00,15.4,18.3,"20:43:38",1
"17/10/20","21:00",0.0,16.7,91.2,1010.4,307.0,0.7,1.6,338.8,0.00,15.3,18.5,"20:56:40",1
"17/10/20","21:10",0.0,16.7,91.1,1010.4,296.7,0.8,1.3,313.6,0.00,15.3,18.3,"21:07:32",1
"17/10/20","21:20",0.0,16.7,91.3,1010.7,319.6,1.0,1.7,323.7,0.00,15.3,18.4,"21:19:12",1
"17/10/20","21:30",0.0,16.8,91.7,1010.4,345.4,1.0,1.6,346.7,0.00,15.5,18.2,"21:21:12",1
"17/10/20","21:40",0.0,16.5,91.8,1010.4,337.3,1.1,1.9,340.7,0.00,15.2,18.4,"21:38:08",1
"17/10/20","21:50",0.0,16.5,91.9,1010.2,329.9,1.0,1.6,350.5,0.00,15.2,18.2,"21:42:00",1
"17/10/20","22:00",0.0,16.6,91.8,1010.4,322.7,1.1,2.0,332.6,0.00,15.3,18.1,"21:54:24",1
"17/10/20","22:10",0.0,16.6,91.8,1010.4,314.0,0.7,1.0,334.5,0.00,15.3,18.3,"22:05:36",1
"17/10/20","22:20",0.0,16.6,91.8,1010.9,324.1,1.1,1.9,316.9,0.00,15.3,18.3,"22:15:20",1
"17/10/20","22:30",0.0,16.6,91.4,1010.7,333.3,1.6,2.9,333.0,0.00,15.2,18.2,"22:20:16",1
"17/10/20","22:40",0.0,16.7,90.9,1010.9,332.3,1.6,2.2,334.4,0.00,15.2,18.2,"22:32:16",1
"17/10/20","22:50",0.0,16.7,90.5,1010.4,328.4,1.2,1.9,342.1,0.00,15.2,18.3,"22:46:32",1
"17/10/20","23:00",0.0,16.7,90.1,1010.7,303.3,1.0,1.9,340.2,0.00,15.1,18.2,"22:50:56",1
"17/10/20","23:10",0.0,16.6,90.0,1010.4,278.2,1.1,1.8,308.7,0.00,15.0,18.1,"23:00:56",1
"17/10/20","23:20",0.0,16.6,89.8,1010.4,292.0,0.8,1.2,317.7,0.00,15.0,18.2,"23:15:04",1
"17/10/20","23:30",0.0,16.6,90.0,1010.2,275.6,0.7,1.0,300.4,0.00,15.0,18.1,"23:28:08",1
"17/10/20","23:40",0.0,16.5,90.5,1010.2,286.5,0.5,0.8,260.5,0.00,15.0,18.2,"23:30:24",1
"17/10/20","23:50",0.2,16.4,91.0,1010.0,293.7,0.6,1.1,310.0,0.00,15.0,18.2,"23:45:20",1
"17/10/20","24:00",0.0,16.3,91.2,1009.3,307.5,0.8,1.2,313.6,0.00,14.9,18.1,"23:56:48",1
